• Join FlightAware (Why Join?)
  • Login
  • US Flag 
04:53PM EST


 

Airport Tracker/Info


-or-


 

Live Flight TrackerFlight Track Log ✈ ASH3731 ✈ 04-May-2012 ✈ KPVD - KORD

Flight Track Log - Related Links

Times and Time Zones

All times are in EDT time to prevent confusion due to time zone crossing. See the ASH3731 flight status page for this flight to view local times or setup timezone preferences in your user account.

Time Position Orientation Groundspeed Altitude Reporting Facility
EDT Latitude Longitude Course Direction KTS MPH feet Rate Location/Type
06:53AM 41.7366 -71.4624 224° Southwest  Level FlightAware Approximate
06:54AM 41.7006 -71.5086 317° Northwest 180 207 3,300  Level Boston Center
06:55AM 41.7467 -71.5664 334° Northwest 227 261 5,400 2,198 Climbing Boston Center
06:56AM 41.8139 -71.6100 311° West 243 280 8,100 2,550 Climbing Boston Center
06:57AM 41.8622 -71.6847 309° West 253 291 10,500 2,200 Climbing Boston Center
06:58AM 41.9108 -71.7650 305° West 280 322 12,500 1,800 Climbing Boston Center
06:59AM 41.9614 -71.8622 291° West 304 350 14,100 1,650 Climbing Boston Center
07:00AM 41.9931 -71.9736 294° West 326 375 15,800 1,750 Climbing Boston Center
07:01AM 42.0311 -72.0908 293° West 331 381 17,600 1,600 Climbing Boston Center
07:02AM 42.0667 -72.2053 294° West 336 387 19,000 1,450 Climbing Boston Center
07:03AM 42.1064 -72.3281 292° West 336 387 20,500 1,500 Climbing Boston Center
07:04AM 42.1442 -72.4514 291° West 348 400 22,000 1,350 Climbing Boston Center
07:05AM 42.1814 -72.5803 292° West 359 413 23,200 1,300 Climbing Boston Center
07:06AM 42.2208 -72.7119 290° West 370 426 24,600 1,250 Climbing Boston Center
07:07AM 42.2558 -72.8439 292° West 375 432 25,700 1,000 Climbing Boston Center
07:08AM 42.2928 -72.9678 290° West 386 444 26,600 1,050 Climbing Boston Center
07:09AM 42.3317 -73.1114 294° West 398 458 27,800 950 Climbing Boston Center
07:10AM 42.3747 -73.2439 290° West 393 452 28,500 694 Climbing Boston Center
07:11AM 42.4153 -73.3933 290° West 402 463 29,200 750 Climbing Boston Center
07:12AM 42.4556 -73.5403 292° West 416 479 30,000 807 Climbing Boston Center
07:13AM 42.4978 -73.6847 291° West 416 479 30,800 900 Climbing Boston Center
07:14AM 42.5397 -73.8350 289° West 416 479 31,800 1,000 Climbing Boston Center
07:15AM 42.5775 -73.9825 291° West 416 479 32,800 900 Climbing Boston Center
07:16AM 42.6231 -74.1417 290° West 406 467 33,600 750 Climbing Boston Center
07:17AM 42.6625 -74.2894 290° West 406 467 34,300 800 Climbing Boston Center
07:18AM 42.7017 -74.4347 290° West 412 474 35,200 850 Climbing Boston Center
07:19AM 42.7408 -74.5803 290° West 412 474 36,000 400 Climbing Boston Center
07:20AM 42.7797 -74.7286 290° West 412 474 36,000  Level Boston Center
07:21AM 42.8203 -74.8803 289° West 412 474 36,000  Level Boston Center
07:22AM 42.8567 -75.0261 289° West 417 480 36,000  Level Boston Center
07:23AM 42.8947 -75.1781 290° West 417 480 36,000  Level Boston Center
07:24AM 42.9272 -75.2986 290° West 417 480 36,000  Level Boston Center
07:25AM 42.9689 -75.4594 290° West 412 474 36,000  Level Boston Center
07:26AM 43.0086 -75.6119 291° West 412 474 36,000  Level Boston Center
07:27AM 43.0483 -75.7561 288° West 412 474 36,000  Level Boston Center
07:28AM 43.0853 -75.9089 286° West 412 474 36,000  Level Boston Center
07:32AM 43.2014 -76.4531 281° West 426 490 36,000  Level Cleveland Center
07:33AM 43.2236 -76.6083 283° West 411 473 36,000  Level Cleveland Center
07:34AM 43.2497 -76.7636 282° West 416 479 36,000  Level Cleveland Center
07:35AM 43.2733 -76.9161 282° West 416 479 36,000  Level Cleveland Center
07:36AM 43.2969 -77.0689 282° West 416 479 36,000  Level Cleveland Center
07:37AM 43.3175 -77.2047 283° West 416 479 36,000  Level Cleveland Center
07:38AM 43.3428 -77.3603 281° West 411 473 36,000  Level Cleveland Center
07:39AM 43.3636 -77.5106 282° West 411 473 36,000  Level Cleveland Center
07:40AM 43.3861 -77.6553 281° West 405 466 36,000  Level Cleveland Center
07:41AM 43.4086 -77.8086 282° West 405 466 36,000  Level Cleveland Center
07:42AM 43.4308 -77.9589 281° West 410 472 36,000  Level Cleveland Center
07:43AM 43.4508 -78.1069 281° West 410 472 36,000  Level Cleveland Center
07:44AM 43.4725 -78.2575 282° West 410 472 36,000  Level Cleveland Center
07:45AM 43.4942 -78.4028 280° West 405 466 36,000  Level Cleveland Center
07:46AM 43.5136 -78.5539 282° West 405 466 36,000  Level Cleveland Center
07:47AM 43.5372 -78.7133 277° West 405 466 36,000  Level Cleveland Center
07:48AM 43.5500 -78.8667 278° West 390 449 36,000 485 Level Toronto Center
07:49AM 43.5667 -79.0333 289° West 390 449 37,100 950 Climbing Toronto Center
07:50AM 43.6000 -79.1667 261° West 370 426 37,900 450 Climbing Toronto Center
07:51AM 43.5833 -79.3167 260° West 370 426 38,000 50 Climbing Toronto Center
07:52AM 43.5667 -79.4500 260° West 370 426 38,000  Level Toronto Center
07:53AM 43.5500 -79.5833 262° West 380 437 38,000  Level Toronto Center
07:54AM 43.5333 -79.7500 260° West 390 449 38,000  Level Toronto Center
07:55AM 43.5167 -79.8833 260° West 380 437 38,000  Level Toronto Center
07:56AM 43.5000 -80.0167 261° West 380 437 38,000  Level Toronto Center
07:57AM 43.4833 -80.1667 260° West 380 437 38,000  Level Toronto Center
07:58AM 43.4667 -80.3000 262° West 380 437 38,000  Level Toronto Center
07:59AM 43.4500 -80.4667 260° West 380 437 38,000  Level Toronto Center
08:00AM 43.4333 -80.6000 260° West 380 437 38,000  Level Toronto Center
08:01AM 43.4167 -80.7333 255° West 380 437 38,000  Level Toronto Center
08:02AM 43.3833 -80.9000 251° West 380 437 38,000  Level Toronto Center
08:03AM 43.3500 -81.0333 262° West 380 437 38,000  Level Toronto Center
08:04AM 43.3333 -81.2000 260° West 380 437 38,000  Level Toronto Center
08:05AM 43.3167 -81.3333 260° West 380 437 38,000  Level Toronto Center
08:06AM 43.3000 -81.4667 260° West 380 437 38,000  Level Toronto Center
08:07AM 43.2833 -81.6000 262° West 380 437 38,000  Level Toronto Center
08:08AM 43.2667 -81.7667 260° West 380 437 38,000  Level Toronto Center
08:09AM 43.2500 -81.9000 251° West 380 437 38,000  Level Toronto Center
08:10AM 43.2167 -82.0333 260° West 380 437 38,000  Level Toronto Center
08:11AM 43.2000 -82.1667 260° West 380 437 38,000  Level Toronto Center
08:12AM 43.1833 -82.3000 262° West 380 437 38,000 -50 Level Toronto Center
08:13AM 43.1667 -82.4667 260° West 370 426 37,900 -450 Descending Toronto Center
08:14AM 43.1500 -82.6000 251° West 370 426 37,100 -800 Descending Toronto Center
08:15AM 43.1167 -82.7333 251° West 380 437 36,300 -750 Descending Toronto Center
08:16AM 43.0833 -82.8667 262° West 380 437 35,600 -950 Descending Toronto Center
08:17AM 43.0667 -83.0333 260° West 380 437 34,400 -1,250 Descending Toronto Center
08:18AM 43.0500 -83.1667 251° West 390 449 33,100 -1,200 Descending Toronto Center
08:19AM 43.0167 -83.3000 262° West 400 460 32,000 -550 Descending Toronto Center
08:20AM 43.0000 -83.4667 261° West 400 460 32,000  Level Toronto Center
08:21AM 42.9833 -83.6167 251° West 400 460 32,000  Level Toronto Center
08:22AM 42.9500 -83.7500 262° West 390 449 32,000  Level Toronto Center
08:23AM 42.9333 -83.9167 270° West 390 449 32,000  Level Toronto Center
08:24AM 42.9333 -84.0500 255° West 390 449 32,000  Level Toronto Center
08:25AM 42.9000 -84.2167 270° West 390 449 32,000  Level Toronto Center
08:26AM 42.9000 -84.3500 261° West 390 449 32,000  Level Toronto Center
08:27AM 42.8833 -84.5000 260° West 390 449 32,000  Level Toronto Center
08:28AM 42.8667 -84.6333 262° West 390 449 32,000  Level Toronto Center
08:29AM 42.8500 -84.8000 260° West 390 449 32,000  Level Toronto Center
08:30AM 42.8333 -84.9333 267° West 400 460 32,000 -81 Level Toronto Center
08:32AM 42.8261 -85.1483 261° West 397 457 31,800 -483 Descending Chicago Center
08:33AM 42.8089 -85.3025 261° West 403 464 30,800 -1,050 Descending Chicago Center
08:34AM 42.7878 -85.4764 257° West 421 484 29,700 -1,050 Descending Chicago Center
08:35AM 42.7617 -85.6336 256° West 426 490 28,700 1,150 Descending Chicago Center
08:36AM 42.7331 -85.7908 257° West 431 496 32,000 -1,750 Climbing Chicago Center
08:37AM 42.7083 -85.9336 256° West 421 484 25,200 -4,250 Descending Chicago Center
08:38AM 42.6850 -86.0592 256° West 405 466 23,500 -1,900 Descending Chicago Center
08:39AM 42.6594 -86.1933 257° West 383 441 21,400 -1,750 Descending Chicago Center
08:40AM 42.6358 -86.3269 257° West 378 435 20,000 -700 Descending Chicago Center
08:41AM 42.6142 -86.4578 254° West 368 423 20,000  Level Chicago Center
08:42AM 42.5864 -86.5917 258° West 368 423 20,000 -50 Level Chicago Center
08:43AM 42.5644 -86.7281 250° West 362 417 19,900 -650 Descending Chicago Center
08:44AM 42.5278 -86.8647 248° West 369 425 18,700 -1,950 Descending Chicago Center
08:45AM 42.4811 -87.0217 250° West 396 456 16,000 -2,750 Descending Chicago Center
08:46AM 42.4442 -87.1553 251° West 402 463 13,200 -2,800 Descending Chicago Center
08:47AM 42.4111 -87.2856 250° West 383 441 10,400 -1,600 Descending Chicago Center
08:48AM 42.3778 -87.4075 247° West 371 427 10,000 -200 Descending Chicago Center
08:49AM 42.3403 -87.5267 224° Southwest 359 413 10,000  Level Chicago Center
08:50AM 42.2686 -87.6186 216° Southwest 343 395 10,000  Level Chicago Center
08:51AM 42.1906 -87.6964 215° Southwest 356 410 10,000  Level Chicago Center
08:52AM 42.1167 -87.7667 246° West 322 371 10,000 -595 Level Chicago TRACON
08:53AM 42.0833 -87.8667 257° West 283 326 8,800 -1,300 Descending Chicago TRACON
08:54AM 42.0667 -87.9667 270° West 280 322 7,400 -1,105 Descending Chicago TRACON
08:55AM 42.0667 -88.0500 255° West 232 267 6,700 -1,333 Descending Chicago TRACON
08:56AM 42.0500 -88.1333 180° South 233 268 4,600 -1,455 Descending Chicago TRACON
08:57AM 42.0000 -88.1333 124° Southeast 220 253 3,500 -952 Descending Chicago TRACON
08:58AM 41.9667 -88.0667 90° East 210 242 2,600 -842 Descending Chicago TRACON
08:59AM 41.9667 -88.0000 90° East 154 177 1,900 -778 Descending Chicago TRACON